This demonstration page uses our WeatherBlox Daily Observations layout. Learn more.

39.01783, -85.05884

Hourly Observations for March 22, 2019

Temp ( °F °C ) Dew Point ( °F °C ) Humidity (%) Winds ( mph kmh ) Pressure ( in mb ) Visibility ( mi km ) Precip ( " mm )
12:52 am 00:52 Cloudy 42 5.6 33 0.6 71 71 WNW 10 17 29.97 1015 10 16.09344 0 0
1:52 am 01:52 Cloudy 41 5 34 1.1 76 76 W 9 15 29.97 1015 10 16.09344 0 0
2:52 am 02:52 Cloudy 41 5 34 1.1 76 76 WSW 9 15 29.97 1015 10 16.09344 0 0
3:52 am 03:52 Mostly Cloudy 40 4.4 34 1.1 79 79 WSW 7 11 29.94 1014 9 14.484096 0 0
4:52 am 04:52 Mostly Clear 38 3.3 33 0.6 83 83 SW 12 19 29.91 1013 8 12.874752 0 0
5:52 am 05:52 Clear 37 2.8 33 0.6 86 86 SW 10 17 29.88 1012 9 14.484096 0 0
6:52 am 06:52 Clear 37 2.8 32 0 82 82 WSW 7 11 29.91 1013 9 14.484096 0 0
7:52 am 07:52 Sunny 37 2.8 32 0 82 82 W 12 19 29.91 1013 9 14.484096 0 0
8:52 am 08:52 Sunny 38 3.3 33 0.6 83 83 W 10 17 29.91 1013 9 14.484096 0 0
9:52 am 09:52 Mostly Sunny 42 5.6 34 1.1 73 73 W 13 20 29.91 1013 10 16.09344 0 0
10:52 am 10:52 Partly Cloudy 45 7.2 35 1.7 68 68 W 21 33 29.91 1013 10 16.09344 0 0
11:52 am 11:52 Mostly Cloudy 48 8.9 35 1.7 61 61 WNW 21 33 29.94 1014 10 16.09344 0 0
12:52 pm 12:52 Mostly Cloudy 46 7.8 31 -0.6 56 56 NNW 17 28 29.97 1015 10 16.09344 0 0
1:52 pm 13:52 Mostly Cloudy 49 9.4 27 -2.8 43 43 NNW 23 37 29.97 1015 10 16.09344 0 0
2:52 pm 14:52 Mostly Cloudy 50 10 27 -2.8 41 41 NNW 17 28 29.97 1015 10 16.09344 0 0
3:52 pm 15:52 Mostly Cloudy 51 10.6 23 -5 33 33 NW 18 30 30 1016 10 16.09344 0 0
4:52 pm 16:52 Mostly Cloudy 49 9.4 23 -5 36 36 NNW 20 31 30 1016 10 16.09344 0 0
5:52 pm 17:52 Partly Cloudy 50 10 23 -5 35 35 NNW 17 28 30.03 1017 10 16.09344 0 0
6:52 pm 18:52 Mostly Sunny 49 9.4 23 -5 36 36 WNW 17 28 30.06 1018 10 16.09344 0 0
7:52 pm 19:52 Mostly Sunny 46 7.8 23 -5 40 40 NW 15 24 30.09 1019 10 16.09344 0 0
8:52 pm 20:52 Mostly Clear 43 6.1 26 -3.3 51 51 NW 12 19 30.12 1020 10 16.09344 0 0
9:52 pm 21:52 Clear 42 5.6 25 -3.9 51 51 NW 15 24 30.12 1020 10 16.09344 0 0
10:52 pm 22:52 Clear 40 4.4 24 -4.4 53 53 NW 14 22 30.15 1021 10 16.09344 0 0
11:52 pm 23:52 Clear 38 3.3 24 -4.4 57 57 NNW 10 17 30.18 1022 10 16.09344 0 0

Powered by AerisWeather